Regional Weather Roundup
Issued by NWS

Home | Current Version | Previous Version | Graphics & Text | Print | Product List | Glossary Off
Versions: 1 2 3 4 5 6 7 8 9 10 11 12 13 14 15 16 17 18 19 20 21 22 23 24 25 26 27 28 29 30 31 32 33 34 35 36 37 38 39 40 41 42 43 44 45 46 47 48 49 50

000
ASUS43 KMKX 242300
RWRWI

WISCONSIN REGIONAL WEATHER ROUNDUP
NATIONAL WEATHER SERVICE MILWAUKEE/SULLIVAN WI
500 PM CST TUE JAN 24 2017

NOTE: "FAIR" INDICATES FEW OR NO CLOUDS BELOW 12,000 FEET WITH NO
SIGNIFICANT WEATHER AND/OR OBSTRUCTIONS TO VISIBILITY.

WIZ001-002-006>008-014>016-023>028-250000-
NORTHWEST WISCONSIN

CITY           SKY/WX    TMP DP  RH WIND       PRES   REMARKS
SUPERIOR ARPT  CLOUDY    33  26  75 CALM      29.86S
ASHLAND        CLOUDY    33  26  75 CALM      29.86R
HAYWARD        CLOUDY    32  26  78 CALM      29.82S
SIREN          CLOUDY    32  27  83 CALM      29.83S
CUMBERLAND     CLOUDY    32  27  80 E7        29.81S WCI  26
RICE LAKE      CLOUDY    33  29  85 N5        29.82S WCI  28
CHETEK         CLOUDY    33  28  83 CALM      29.81S
LADYSMITH      LGT RAIN  33  32  94 CALM      29.82F
EAU CLAIRE     NOT AVBL
MENOMONIE        N/A    N/A N/A N/A MISG        N/A
NEW RICHMOND   CLOUDY    32  28  85 NE7       29.82S WCI  26
OSCEOLA        CLOUDY    32  28  84 NE3       29.85R
$$

WIZ003>005-009-010-017-018-250000-
NORTH CENTRAL WISCONSIN

CITY           SKY/WX    TMP DP  RH WIND       PRES   REMARKS
MANITOWISH WTR FLURRIES  32  32 100 CALM      29.79S
ARBOR VITAE    CLOUDY    37  33  87 S3        29.80R
WOODRUFF       CLOUDY    37  33  87 S3        29.80R
RHINELANDER    CLOUDY    36  31  82 CALM      29.80R
EAGLE RIVER    CLOUDY    34  32  94 CALM      29.79S
LAND O LAKES   CLOUDY    34  32  93 CALM      29.81R
PHILLIPS       CLOUDY    32  29  90 CALM      29.79S
TOMAHAWK       CLOUDY    33  29  84 CALM      29.80S
MEDFORD        CLOUDY    32  29  89 NE5       29.79S WCI  28
MERRILL        CLOUDY    35  30  83 CALM        N/A
$$

WIZ029-030-035-036-043>047-250000-
CENTRAL WISCONSIN

CITY           SKY/WX    TMP DP  RH WIND       PRES   REMARKS
WAUSAU         CLOUDY    35  29  78 E3        29.79S
MOSINEE        CLOUDY    34  32  93 E3        29.80S
MARSHFIELD     CLOUDY    33  28  81 VRB3      29.79R
STEVENS POINT  CLOUDY    33  29  85 CALM      29.81S
WAUPACA        CLOUDY    38  32  80 CALM      29.82S
WAUTOMA        CLOUDY    34  31  88 E3        29.83R
WISC RAPIDS    CLOUDY    35  30  82 CALM      29.82R
CAMP DOUGLAS   NOT AVBL
$$

WIZ011>013-019>022-031-037>040-048>050-250000-
NORTHEAST WISCONSIN

CITY           SKY/WX    TMP DP  RH WIND       PRES   REMARKS
ANTIGO         CLOUDY    33  31  91 CALM      29.80S
SHAWANO        CLOUDY    39  33  77 CALM      29.81S
OCONTO         CLOUDY    37  34  88 NE3       29.81F
STURGEON BAY   CLOUDY    36  35  96 CALM      29.82S
GREEN BAY      CLOUDY    39  34  82 NW6       29.82R WCI  35
MANITOWOC      NOT AVBL
APPLETON       CLOUDY    36  34  93 CALM      29.80S
CLINTONVILLE   CLOUDY    36  32  87 CALM      29.81F
OSHKOSH        CLOUDY    36  31  82 CALM      29.82R
$$

WIZ032>034-041-042-053>061-250000-
SOUTHWEST WISCONSIN

CITY           SKY/WX    TMP DP  RH WIND       PRES   REMARKS
LA CROSSE      CLOUDY    37  31  78 NE5       29.78F WCI  33
SPARTA         CLOUDY    34  32  92 E3        29.82S
VIROQUA        CLOUDY    33  32  95 E6        29.76F WCI  28
BOSCOBEL       CLOUDY    37  31  78 E3        29.79F
PRAIRIE DU CHI CLOUDY    35  31  87 E5        29.77F WCI  30
PLATTEVILLE    CLOUDY    35  34  99 E8        29.77F WCI  28
$$

WIZ056-057-062-063-064-067-068-250000-
SOUTH CENTRAL WISCONSIN

CITY           SKY/WX    TMP DP  RH WIND       PRES   REMARKS
REEDSBURG      CLOUDY    35  32  89 NE5       29.78F WCI  31
BARABOO/DELLS  CLOUDY    35  31  87 E5        29.80S WCI  31
LONE ROCK      NOT AVBL
MINERAL POINT  CLOUDY    36  34  93 SE5       29.78S WCI  32
MADISON        CLOUDY    35  30  82 E7        29.80F WCI  29
MIDDLETON      CLOUDY    37  33  85 E6        29.80S WCI  32
WATERTOWN      CLOUDY    35  33  92 CALM      29.82S
MONROE         CLOUDY    32  32 100 E5        29.78S WCI  27
JANESVILLE     CLOUDY    36  34  93 SE6       29.80F WCI  31
$$

WIZ051-052-058>065-066-070>072-250000-
SOUTHEAST WISCONSIN

CITY           SKY/WX    TMP DP  RH WIND       PRES   REMARKS
MILWAUKEE      CLOUDY    39  32  76 CALM      29.83S
WAUKESHA       CLOUDY    34  30  86 CALM      29.83S
MILWAUKEE/TIMM CLOUDY    37  30  75 CALM      29.83F
RACINE         CLOUDY    37  31  78 CALM      29.84F
KENOSHA        CLOUDY    37  32  82 N3        29.81F
FOND DU LAC    CLOUDY    37  30  75 CALM      29.82S
SHEBOYGAN      CLOUDY    37  32  82 W5        29.83R WCI  33
WEST BEND      CLOUDY    36  34  93 CALM      29.82S
JUNEAU         CLOUDY    34  32  91 CALM      29.83S
$$

LSZ147-162-250000-
LAKE SUPERIOR

STATION/POSITION TIME  TEMP    WIND        PRES    WAVE
                       AIR SEA DIR/SP/G            HT/PER
                 (UTC) (F)     (DEG/KT/KT) (MB)    (FT/S)
DEVILS ISLAND    2200   35     250/ 10/ 10 1011.1R
PORT WING        2240   33     240/  2/  4 1011.5R
SAXON HARBOR     2230   34     200/  4/  5 1010.8R
$$

LMZ867-665-643>646-250000-
LAKE MICHIGAN

STATION/POSITION TIME  TEMP    WIND        PRES    WAVE
                       AIR SEA DIR/SP/G            HT/PER
                 (UTC) (F)     (DEG/KT/KT) (MB)    (FT/S)
CHAMBERS ISLAND  2240   35        CALM     1009.5S
NORTHPORT PIER   2240   36     300/  4/  7 1009.8S
SISTER BAY       2135   34        CALM       N/A
KEWAUNEE LAKESHO 2230   39      CALM  /  2 1009.3F
SHEBOYGAN LAKESH 2200   38     330/  2/  3 1010.2R
PORT WASHINGTON  2230   38     340/  1/  4 1011.2S
KENOSHA   LAKESH 2200   36     100/  3/  4 1010.5
$$

TC  - TEMPERATURE IN CELSIUS
VSB - VISIBILITY IN STATUTE MILES
WCI - WIND CHILL INDEX
HX  - HEAT INDEX





USA.gov is the U.S. government's official web portal to all federal, state and local government web resources and services.